Showing default

LEMUR-2 KUTAR, 67394

Orbit data source: Space-Track

LEMUR-2 KUTAR, 67394 is a payload satellite owned by Spire (US) in SSO that was launched on Sun, 11 Jan 2026 UTC via an FALCON 9 launch vehicle from the Air Force Western Test Range (AFWTR). Payload-class satellites include a variety of spacecraft equipped with specific instruments for various scientific and technological missions. These include communications satellites like Starlink; space stations such as the ISS; scientific satellites like the Hubble; Earth observation satellites from companies like Planet Labs, Umbra, and HawkEye 360; GPS; miniature CubeSats for education and research; and military/defense satellites.

Loading next visibility...
Identifier
67394, 2026-004AH
Orbit
SSO
Country
Flag of USUS
Related business
Manufacturer
Spire/Glasgow
Mission
Operational spacecraft
Bus & Motor
CUBESAT 16U, Unknown motor
Mass
~20 kg wet, ~20 kg dry
Launch date (UTC)
2026-01-11 (3 months ago)
Launch vehicle
FALCON 9
Launch site
Air Force Western Test Range (AFWTR)
Object type
Payload
Rocket body
Debris
Shape & HBR
Unknown shape, 0.2 m
Radar Cross Section
RCS unknown

Expand to show TLE details & history
Last TLE update: 8 hours ago

TLE from 8 hours ago
0 LEMUR-2 KUTAR
1 67394U 26004AH  26095.24376952  .00006520  00000-0  31626-3 0  9995
2 67394  97.4499  95.3391 0007534 221.5524 138.5138 15.18812297 12694
Epoch: 2026-04-05T05:51Z
TLE epoch observation values (Epoch: 2026-04-05T05:51:01.686Z)
Latitude
-0.00007°
Longitude
174.0301°
Altitude
516.406 km
Speed
7.603 km/s
True Right ascension
06h 21m 21s
True Declination
0° 00' 00"
Sunlit
Object was in daylight at epoch
Visualization orbit readout
Latitude
Unknown
Longitude
Unknown
Altitude
Unknown
Speed
Unknown
Apparent Right ascension
Unknown
Apparent Declination
Unknown
Sunlit
N/A
Visualization observer readout
Local Sidereal Time
19:28:35
Azimuth
Unknown
Elevation
Unknown
Doppler factor
Unknown
Orbital elements
Apogee altitude
511.585 km
Perigee altitude
501.211 km
Semi-major axis
6,884.535 km
Eccentricity
0.00075
Inclination
97.4499°
RAAN
95.3391°
Arg. of periapsis
221.5524°
True anomaly
138.57095°
Mean anomaly
138.5138°
Eccentric anomaly
138.54238°
Mean motion
3.79954 °/min
Orbital period
94.75 mins
BSTAR
0.00031626
Loading maneuver chart data...
Computing Atmospheric mass density...
Loading historical data...
Loading historical data...
Loading historical data...
Loading historical data...
Loading historical data...
Loading historical data...
Loading historical data...

Documentation

Showing up to 5 results
|